Starlink 30951

operational
NORAD ID: 58439 Int'l Des: 2023-183 Owner: SPXS Country: US Constellation: starlink
LEOCIRCULAR

关于 Starlink 30951

正在加载描述...

实时位置

正在加载3D地球...

即将过境

高度历史

Altitude vs Time

uPlot chart will show altitude changes over time

两行轨道根数

1 58439U 23183C 25351.65680376 .00000712 00000-0 67823-4 0 9993
2 58439 43.0034 129.1290 0001660 270.3230 89.7422 15.02521039114375
Epoch: Dec 17, 2025 • Age: 5 hours

当前状态

高度 559.6 km
速度 7.59 km/s
星下点 24.65°N, 119.85°E
发射日期 Nov 28, 2023
运行时间 2 years
类型 internet

技术详情

分类 Payload
质量 730.00 kg
干质量 700.00 kg
总质量 730.00 kg
长度 0.30 m
直径 4.10 m
跨度 29.00 m
形状 Box + pan
制造商 SPXS
平台类型 Starlink V2M
阶段状态 In Orbit
所有者/国家 SPXS/US

大型星座

Loading constellations...